| time (UTC) | temp C | wind direction | speed KPH | gust KPH | rain 1hr cm | rain 24hr cm | rain mn cm | humidity % | barometer mb |
| 20260502190001 | 31 | 59 | 0.0 | 16.1 | 0.00 | 0.00 | 0.00 | 10 | 1012.2 |
| 20260502184602 | 32 | 70 | 3.2 | 14.5 | 0.00 | 0.00 | 0.00 | 10 | 1012.4 |
| 20260502183057 | 31 | 96 | 4.8 | 14.5 | 0.00 | 0.00 | 0.00 | 10 | 1012.7 |
| 20260502181556 | 31 | 145 | 6.4 | 17.7 | 0.00 | 0.00 | 0.00 | 10 | 1013.0 |
| 20260502163050 | 29 | 50 | 3.2 | 9.7 | 0.00 | 0.00 | 0.00 | 8 | 1013.4 |
| 20260502161541 | 28 | 85 | 1.6 | 8.0 | 0.00 | 0.00 | 0.00 | 8 | 1013.5 |
| 20260502151553 | 26 | 64 | 3.2 | 9.7 | 0.00 | 0.00 | 0.00 | 12 | 1013.1 |
| 20260502123058 | 18 | 46 | 0.0 | 0.0 | 0.00 | 0.00 | 0.00 | 20 | 1011.3 |
| 20260502121555 | 18 | 48 | 0.0 | 0.0 | 0.00 | 0.00 | 0.00 | 20 | 1011.2 |
| 20260502114551 | 18 | 49 | 0.0 | 0.0 | 0.00 | 0.00 | 0.00 | 20 | 1011.2 |
| 20260502113053 | 19 | 43 | 0.0 | 0.0 | 0.00 | 0.00 | 0.00 | 19 | 1011.1 |
| 20260502111548 | 19 | 43 | 0.0 | 0.0 | 0.00 | 0.00 | 0.00 | 18 | 1011.0 |
| 20260502110053 | 20 | 43 | 0.0 | 0.0 | 0.00 | 0.00 | 0.00 | 17 | 1011.0 |
| 20260502104541 | 20 | 43 | 0.0 | 0.0 | 0.00 | 0.00 | 0.00 | 16 | 1010.9 |
| 20260502103038 | 20 | 43 | 0.0 | 0.0 | 0.00 | 0.00 | 0.00 | 16 | 1010.8 |
| 20260502101535 | 21 | 43 | 0.0 | 0.0 | 0.00 | 0.00 | 0.00 | 16 | 1010.7 |
| 20260502091527 | 23 | 54 | 3.2 | 6.4 | 0.00 | 0.00 | 0.00 | 11 | 1010.4 |
| 20260502071509 | 22 | 28 | 4.8 | 11.3 | 0.00 | 0.00 | 0.00 | 13 | 1009.8 |
| 20260502070015 | 22 | 342 | 3.2 | 8.0 | 0.00 | 0.00 | 0.00 | 10 | 1009.6 |
| 20260502064506 | 23 | 351 | 1.6 | 6.4 | 0.00 | 0.00 | 0.00 | 9 | 1009.6 |
| 20260502063003 | 23 | 293 | 0.0 | 3.2 | 0.00 | 0.00 | 0.00 | 10 | 1009.3 |
| 20260502061559 | 24 | 157 | 1.6 | 6.4 | 0.00 | 0.00 | 0.00 | 10 | 1009.3 |
| 20260502060054 | 25 | 167 | 0.0 | 4.8 | 0.00 | 0.00 | 0.00 | 10 | 1008.9 |
| 20260502054555 | 25 | 157 | 1.6 | 4.8 | 0.00 | 0.00 | 0.00 | 10 | 1008.9 |
| 20260502053045 | 25 | 180 | 0.0 | 0.0 | 0.00 | 0.00 | 0.00 | 10 | 1009.0 |
| 20260502051543 | 25 | 182 | 0.0 | 3.2 | 0.00 | 0.00 | 0.00 | 10 | 1008.9 |
| 20260502050042 | 25 | 186 | 0.0 | 1.6 | 0.00 | 0.00 | 0.00 | 11 | 1008.8 |
| 20260502044532 | 27 | 199 | 0.0 | 3.2 | 0.00 | 0.00 | 0.00 | 8 | 1008.7 |
| 20260502043028 | 27 | 215 | 0.0 | 4.8 | 0.00 | 0.00 | 0.00 | 6 | 1008.6 |
| 20260502041527 | 28 | 217 | 3.2 | 6.4 | 0.00 | 0.00 | 0.00 | 5 | 1008.3 |
| 20260502040019 | 28 | 248 | 4.8 | 8.0 | 0.00 | 0.00 | 0.00 | 5 | 1008.2 |
| 20260502034521 | 28 | 216 | 4.8 | 9.7 | 0.00 | 0.00 | 0.00 | 6 | 1008.1 |
| 20260502033010 | 28 | 217 | 6.4 | 9.7 | 0.00 | 0.00 | 0.00 | 6 | 1008.0 |
| 20260502031506 | 28 | 240 | 3.2 | 12.9 | 0.00 | 0.00 | 0.00 | 6 | 1007.8 |
| 20260502030002 | 29 | 250 | 4.8 | 11.3 | 0.00 | 0.00 | 0.00 | 6 | 1007.6 |
| 20260502024608 | 29 | 234 | 4.8 | 11.3 | 0.00 | 0.00 | 0.00 | 5 | 1007.5 |
| 20260502023108 | 30 | 225 | 3.2 | 16.1 | 0.00 | 0.00 | 0.00 | 5 | 1007.3 |
| 20260502021548 | 30 | 202 | 8.0 | 12.9 | 0.00 | 0.00 | 0.00 | 4 | 1007.0 |
| 20260502020053 | 30 | 188 | 6.4 | 16.1 | 0.00 | 0.00 | 0.00 | 5 | 1007.1 |
| 20260502014545 | 30 | 189 | 8.0 | 14.5 | 0.00 | 0.00 | 0.00 | 5 | 1007.0 |
| 20260502013044 | 31 | 180 | 4.8 | 12.9 | 0.00 | 0.00 | 0.00 | 4 | 1006.9 |
| 20260502011539 | 31 | 174 | 6.4 | 12.9 | 0.00 | 0.00 | 0.00 | 5 | 1006.8 |
| 20260502010036 | 31 | 227 | 4.8 | 11.3 | 0.00 | 0.00 | 0.00 | 5 | 1007.0 |
| 20260502004537 | 32 | 195 | 4.8 | 11.3 | 0.00 | 0.00 | 0.00 | 5 | 1007.1 |
| 20260502003033 | 32 | 279 | 3.2 | 6.4 | 0.00 | 0.00 | 0.00 | 5 | 1007.0 |
| 20260502001533 | 31 | 223 | 6.4 | 11.3 | 0.00 | 0.00 | 0.00 | 6 | 1007.1 |
| 20260502000056 | 31 | 238 | 3.2 | 12.9 | 0.00 | 0.00 | 0.00 | 7 | 1007.2 |
| 20260501234534 | 31 | 259 | 1.6 | 12.9 | 0.00 | 0.00 | 0.00 | 7 | 1007.4 |
| 20260501233029 | 31 | 261 | 9.7 | 16.1 | 0.00 | 0.00 | 0.00 | 8 | 1007.4 |
| 20260501231527 | 31 | 175 | 1.6 | 14.5 | 0.00 | 0.00 | 0.00 | 8 | 1007.5 |
| 20260501230027 | 31 | 323 | 3.2 | 12.9 | 0.00 | 0.00 | 0.00 | 8 | 1007.5 |
| 20260501224539 | 31 | 279 | 3.2 | 12.9 | 0.00 | 0.00 | 0.00 | 9 | 1007.6 |
| 20260501223027 | 32 | 300 | 1.6 | 8.0 | 0.00 | 0.00 | 0.00 | 8 | 1007.9 |
| 20260501221526 | 32 | 302 | 8.0 | 17.7 | 0.00 | 0.00 | 0.00 | 7 | 1008.1 |
| 20260501220030 | 31 | 249 | 4.8 | 14.5 | 0.00 | 0.00 | 0.00 | 9 | 1008.5 |
| 20260501214524 | 31 | 279 | 3.2 | 14.5 | 0.00 | 0.00 | 0.00 | 8 | 1008.7 |
| 20260501213021 | 31 | 287 | 0.0 | 6.4 | 0.00 | 0.00 | 0.00 | 7 | 1008.9 |
| 20260501211522 | 31 | 197 | 6.4 | 24.1 | 0.00 | 0.00 | 0.00 | 7 | 1009.3 |
| 20260501210019 | 30 | 154 | 0.0 | 6.4 | 0.00 | 0.00 | 0.00 | 7 | 1009.5 |
| 20260501204515 | 29 | 231 | 0.0 | 12.9 | 0.00 | 0.00 | 0.00 | 10 | 1009.7 |
| 20260501203013 | 30 | 246 | 3.2 | 9.7 | 0.00 | 0.00 | 0.00 | 11 | 1009.9 |
| 20260501201515 | 29 | 346 | 3.2 | 14.5 | 0.00 | 0.00 | 0.00 | 11 | 1009.8 |
| 20260501200015 | 29 | 248 | 3.2 | 11.3 | 0.00 | 0.00 | 0.00 | 11 | 1010.1 |
| 20260501194512 | 28 | 190 | 9.7 | 17.7 | 0.00 | 0.00 | 0.00 | 11 | 1010.2 |
| 20260501193006 | 28 | 232 | 6.4 | 11.3 | 0.00 | 0.00 | 0.00 | 12 | 1010.3 |
| 20260501191506 | 28 | 251 | 1.6 | 11.3 | 0.00 | 0.00 | 0.00 | 12 | 1010.5 |